Tracking 28790 objects as of 18-Apr-2024
HD Live streaming from Space Station
objects crossing your sky now

COSMOS 715

Track COSMOS 715 now!
10-day predictions
COSMOS 715 is classified as:


NORAD ID: 7682
Int'l Code: 1975-016E
Perigee: 1,476.4 km
Apogee: 1,511.1 km
Inclination: 74.0 °
Period: 115.7 minutes
Semi major axis: 7864 km
RCS: 0.728 m2 (medium)
Launch date: February 28, 1975
Source: Commonwealth of Independent States (former USSR) (CIS)
Launch site: PLESETSK MISSILE AND SPACE COMPLEX (PKMTR)
Your satellite tracking list
Your tracking list is empty




NASA's NSSDC Master Catalog

Two Line Element Set (TLE):
1 07682U 75016E   24108.51092531  .00000000  00000-0  10997-3 0  9992
2 07682  73.9997 129.4570 0022051 176.4989 338.0971 12.44727753803498
Source of the keplerian elements: AFSPC